Regional Weather Roundup
Issued by NWS Charleston, SC

Current Version | Previous Version | Graphics & Text | Print | Product List | Glossary On
Versions: 1 2 3 4 5 6 7 8 9 10 11 12 13 14 15 16 17 18 19 20 21 22 23 24 25 26 27 28 29 30 31 32 33 34 35 36 37 38 39 40 41 42 43 44 45 46 47 48 49 50
000
ASUS42 KCHS 260913
RWRCHS

REGIONAL WEATHER ROUNDUP
NATIONAL WEATHER SERVICE CHARLESTON SC
500 AM EDT TUE JUL 26 2016

NOTE: "FAIR" INDICATES FEW OR NO CLOUDS BELOW 12,000 FEET WITH NO
SIGNIFICANT WEATHER AND/OR OBSTRUCTIONS TO VISIBILITY.

NOT ALL STATIONS ARE QUALITY CONTROLLED. USE DATA WITH CAUTION...
ESPECIALLY DEWPOINT OBSERVATIONS.

SCZ027-030-031-034>040-042>050-261000-
...SOUTHEAST SOUTH CAROLINA...

CITY           SKY/WX    TMP DP  RH WIND       PRES   REMARKS
N CHARLESTON   CLEAR     75  72  90 SW3       30.03S
WATERFRONT PRK   N/A     81  75  82 VRB2      30.01S
MOUNT PLEASANT FAIR      75  73  94 CALM      30.03S
JOHNS ISLAND   FAIR      77  73  88 CALM      30.03S
PINOPOLIS        N/A     79  73  83 SW7       29.95F
MONCKS CORNER  FAIR      70  68  94 CALM      30.03S
SUMMERVILLE    FAIR      72  72 100 CALM      30.04S
BEAUFORT MCAS  CLEAR     78  74  87 SW6       30.03S
BEAUFORT ARPT  FAIR      81  75  83 W7        30.03S
HILTON HEAD IS CLEAR     81  77  89 SW6       30.04S
WALTERBORO     SUNNY     77  77 100 CALM      30.04S
ALLENDALE      FAIR      75  72  88 CALM      30.02S

...SOUTHERN MIDLANDS AND PEE DEE...

CITY           SKY/WX    TMP DP  RH WIND       PRES   REMARKS
GEORGETOWN     FAIR      72  70  94 SW3       30.04S
KINGSTREE      FAIR      73  70  88 CALM      30.03R
ORANGEBURG     CLEAR     74  71  91 SW3       30.03F
BARNWELL       NOT AVBL
AIKEN          NOT AVBL
MANNING        FAIR      77  72  83 SW5       30.03S
COLUMBIA       CLEAR     78  71  79 SW6       30.01F
SUMTER         CLEAR     77  72  83 SW8       30.00S
FLORENCE       MOCLDY    77  73  87 SW7       30.02S
MYRTLE BEACH   CLEAR     77  66  69 SW3       30.05R
N MYRTLE BEACH CLEAR     79  73  82 SW9       30.02S

$$

GAZ063-065-086>088-099>101-113>116-118-119-134>141-150-261000-
...SOUTHEAST GEORGIA...

CITY           SKY/WX    TMP DP  RH WIND       PRES   REMARKS
SAVANNAH ARPT  CLEAR     77  72  84 SW5       30.04S
HUNTER AAF     CLEAR     78  76  95 SW6       30.01F
FORT STEWART   CLEAR     74  71  90 CALM      30.02S
STATESBORO     CLEAR     76  74  92 SW3       30.04R
SYLVANIA       NOT AVBL
CLAXTON        FAIR      74  73  99 CALM      30.04S

...CSRA...CENTRAL AND FAR SOUTHEAST GEORGIA...

CITY           SKY/WX    TMP DP  RH WIND       PRES   REMARKS
THOMSON        NOT AVBL
AUGUSTA-BUSH   CLEAR     73  71  93 CALM      30.01F
AUGUSTA-DANIEL CLEAR     78  70  76 SW6       30.03F
SWAINSBORO     FAIR      75  72  88 CALM      30.04F
VIDALIA        CLEAR     73  72  94 CALM      30.05S
EASTMAN        FAIR      74  74 100 CALM      30.07S
HAZLEHURST     FAIR      76  76 100 CALM      30.04S
ALMA           PTCLDY    74  72  93 CALM      30.04F
WAYCROSS       CLOUDY    79  77  94 SW3       30.05S
JESUP          FAIR      72  72 100 CALM      30.05R
BAXLEY         FAIR      73  73 100 CALM      30.04S
BRUNSWICK      CLEAR     73  73 100 CALM      30.05S
SAINT SIMONS   CLEAR     79  74  84 W5        30.04S

$$

SCZ027-028-034-036>038-045-046-048>050-GAZ119-141-261000-
...LAKE AND SUPPLEMENTAL COASTAL OBSERVATIONS...

STATION/POSITION TIME  TEMP    WIND        PRES    WAVE   SWELL
                       AIR SEA DIR/SP/G            HT/PER HT/PER/DIR
                 (UTC) (F)     (DEG/KT/KT) (MB)    (FT/S) (FT/S/D)
WINYAH BAY       NOT AVBL
LAKE MURRAY      NOT AVBL
ACE BASIN NERRS  NOT AVBL
FORT PULASKI     0800   82 87  220/  6/  9 1017.6F
SAPELO ISLAND    0800   80     200/  5     1017.0F

$$

ANZ835-935-AMZ111-154-330-350-352-354-370-450-454-472-261000-
...C-MAN AND BUOY OBSERVATIONS...

STATION/POSITION TIME  TEMP    WIND        PRES    WAVE   SWELL
                       AIR SEA DIR/SP/G            HT/PER HT/PER/DIR
                 (UTC) (F)     (DEG/KT/KT) (MB)    (FT/S) (FT/S/D)
BUOY 41004       0850   84 86  220/ 14/ 16 1016.4F   2/ 4   2/130/ 9
BUOY 41008       0850   84 86  230/ 10/ 12 1017.0S   3/ 4   2/100/ 9
FOLLY BEACH CMAN 0900   83     210/ 15/ 17 1016.8F
CAPERS NEARSHORE 0808   83 83  230/ 14/ 19 1016.7F
FRIPP NEARSHORE  0808   85 86  220/ 16/ 19 1016.2F


STATION/POSITION TIME  TEMP    WIND        PRES    WAVE   SWELL
                       AIR SEA DIR/SP/G            HT/PER HT/PER/DIR
                 (UTC) (F)     (DEG/KT/KT) (MB)    (FT/S) (FT/S/D)
5E ST. MARYS GA  0901      86                N/A     2/ 5
FRYING PAN BUOY  0800   84 86  240/ 14/ 17 1016.5F
BUOY 41025       0850   84 85  250/ 19/ 21 1016.0F   5/ 6
CAPE LOOKOUT NC  0800   83     250/ 14/ 17 1016.2R
BUOY 41002       0850   83 84  190/  8/ 10 1018.2F   2/ 8   2/ 80/ 8
BUOY 41010       0820   85 86  180/ 10/ 12 1018.2F
ST AUGUSTINE FL  0900   78 84  230/  3/  3 1018.6R


$$




USA.gov is the U.S. government's official web portal to all federal, state and local government web resources and services.